Location: Atbuku
(36.4936°N, 30.4362°E)
Time: 03:52:03
(UTC+00:00)

Cosmos 2263 Rocket - Pass Details

Date: 11 December 2025
Orbit: 821 x 849 km, 71.0° (Epoch: 13 January)

Event Time Altitude Azimuth Distance (km) Brightness Sun altitude
Rises 16:41:18 0° 337° (NNW) 3,407 5.5 -23.1°
Reaches altitude 10° 16:43:45 10° 336° (NNW) 2,472 4.7 -23.5°
Maximum altitude 16:49:25 81° 251° (WSW) 862 2.2 -24.7°
Drops below altitude 10° 16:55:06 10° 164° (SSE) 2,464 4.6 -25.8°
Sets 16:57:32 0° 163° (SSE) 3,395 5.3 -26.3°
